Terminal Aerodrome Forecast
Issued by NWS

Home | Current Version | Previous Version | Text Only | Print | Product List | Glossary On
Versions: 1 2 3 4 5 6 7 8 9 10 11 12 13 14 15 16 17 18 19 20 21 22 23
000
FTUS44 KLZK 050300 AAA
TAFLIT
TAF AMD
KLIT 050314Z 0503/0524 01015G25KT 3SM -PL BR SCT009 OVC015
      TEMPO 0503/0507 1SM -PLSN BR OVC009
     FM050700 02012G20KT 2SM -SN BR OVC005
     FM051300 01015G25KT P6SM OVC025
     FM051800 36009KT P6SM BKN040=

USA.gov is the U.S. government's official web portal to all federal, state and local government web resources and services.